Regional Weather Roundup
Issued by NWS Green Bay, WI

Home | Current Version | Previous Version | Graphics & Text | Print | Product List | Glossary Off
Versions: 1 2 3 4 5 6 7 8 9 10 11 12 13 14 15 16 17 18 19 20 21 22 23 24 25 26 27 28 29 30 31 32 33 34 35 36 37 38 39 40 41 42 43 44 45 46 47 48 49 50

010
ASUS43 KGRB 221801
RWRGRB

NORTH-CENTRAL AND NORTHEAST WISCONSIN REGIONAL WEATHER ROUNDUP
NATIONAL WEATHER SERVICE GREEN BAY WI
100 PM CDT FRI SEP 22 2017

WIZ005-009-010>012-018-019-221900-
NORTH CENTRAL WISCONSIN

CITY           SKY/WX    TMP DP  RH WIND       PRES   REMARKS
IRONWOOD       CLOUDY    65  62  90 S16G23    29.94R
MANITOWISH WTR NOT AVBL
ARBOR VITAE    NOT AVBL
EAGLE RIVER    NOT AVBL
LAND O LAKES   NOT AVBL
RHINELANDER    TSTM      65  64  97 VRB3      30.07R
PHILLIPS       NOT AVBL
ANTIGO         NOT AVBL
TOMAHAWK       NOT AVBL
MERRILL        NOT AVBL
$$

WIZ013-073-221900-
NORTHEAST WISCONSIN

CITY           SKY/WX    TMP DP  RH WIND       PRES   REMARKS
IRON MOUNTAIN  CLOUDY    81  69  67 S3        30.00R
MARINETTE      CLOUDY    86  72  62 SW10      29.98F HX  92
$$

WIZ017-030-035>037-045-221900-
CENTRAL WISCONSIN

CITY           SKY/WX    TMP DP  RH WIND       PRES   REMARKS
MEDFORD        NOT AVBL
WAUSAU         PTSUNNY   85  69  58 S12       29.98S
MOSINEE        MOSUNNY   84  70  61 S15       29.99F
MARSHFIELD     SUNNY     88  68  51 S14G22    29.97F HX  91
WISC RAPIDS    SUNNY     88  70  55 S15G22    29.99F HX  93
STEVENS POINT  NOT AVBL
WAUPACA        NOT AVBL
SHAWANO        NOT AVBL
CLINTONVILLE   NOT AVBL
WAUTOMA        NOT AVBL
$$

WIZ038-039-048-051-221900-
FOX VALLEY

CITY           SKY/WX    TMP DP  RH WIND       PRES   REMARKS
NWS GREEN BAY  SUNNY     88  72  58 S12       30.00F HX  94
APPLETON       MOSUNNY   88  64  45 SW13G18   30.01S
OSHKOSH        SUNNY     88  71  57 SW13G21   30.02R HX  94
FOND DU LAC    SUNNY     88  67  49 SW13      30.03R HX  91
$$

WIZ022-050-052-221900-
EAST CENTRAL WISCONSIN

CITY           SKY/WX    TMP DP  RH WIND       PRES   REMARKS
EPHRAIM        NOT AVBL
WASHINGTON ISL NOT AVBL
STURGEON BAY   NOT AVBL
MANITOWOC      SUNNY     82  71  69 S12       30.03S
SHEBOYGAN      SUNNY     91  69  48 SW13      30.03S HX  96
$$

LMZ563-521-522-541>543-221900-
LAKESHORE

STATION/POSITION TIME  TEMP    WIND        PRES    VSBY  WAVE
                       AIR SEA DIR/SP/G                  HT/PER
                 (UTC) (F)     (DEG/KT/KT) (MB)    (MI)  (FT/S)
SHEBOYGAN LKSHOR 1700   70     170/ 15/ 16 1016.6F
KEWAUNEE LKSHORE 1724   67     180/ 13/ 18 1015.8
NORTHPORT PIER   1740   74     140/ 10/ 12 1015.6S
N MID LAKE BUOY  1650   69 66  190/ 12/ 14 1016.4F         2/ 4
S GREEN BAY BUOY 1730   74 69  200/  6/  6 1015.8R
SISTER BAY LKSHO 1719   87     150/  8/ 10   N/A
MENOMINEE LKSHOR 1724   82     180/  8/ 12 1015.2
$$




USA.gov is the U.S. government's official web portal to all federal, state and local government web resources and services.